User: anonymous   Login
Location: Bothwell
(42.3833°S, 147.0000°E)
Time: 06:34:27
(UTC+11:00)
Language:

CUTE-I - Orbit

View from above orbital plane
View from above orbital plane
View from above satellite
View from above satellite

Ground track
Ground track

The orbit data is extracted from the following two-line orbital elements,

1 27844U 03031E   23029.28099865  .00000391  00000-0  19426-3 0  9993
2 27844  98.6797  38.5733 0010143 162.3687 197.7845 14.22606064 16014
Epoch (UTC): 29 January 2023 06:44:38
Eccentricity: 0.0010143
inclination: 98.6797°
perigee height: 809 km
apogee height: 824 km
right ascension of ascending node: 38.5733°
argument of perigee: 162.3687°
revolutions per day: 14.22606064
mean anomaly at epoch: 197.7845°
orbit number at epoch: 1601

The dashed part of the orbit path shows where the satellite is in the earth's shadow,  

DLR